Find Starlink 34980

NORAD ID: 65258 Int'l Des: 2025-179 Owner: SPXS Country: US Constellation: starlink operational
LEOCIRCULARRETROGRADESSO

Live-Position

3D-Globus wird geladen...

Über Starlink 34980

Beschreibung wird geladen...

Nächste Überflüge

Passes for default location (London). Set your location on the main map for personalized predictions.

Höhenverlauf

Loading altitude history...

Zweizeiliger Elementsatz

1 65258U 25179Z 26107.07568465 .00004164 00000-0 29257-3 0 9990
2 65258 97.6047 150.7935 0001055 104.9430 255.1914 15.05655899 37597
Epoch: 17. Apr. 2026 • Age: 12 hours

Aktueller Status

Höhe 578.2 km
Geschwindigkeit 7.57 km/s
Subsatellitenpunkt -79.47°S, 132.19°W
Startdatum 18. Aug. 2025
Alter 0.6 years
Typ internet

Technische Details

Klassifizierung Payload
Masse 575.00 kg
Trockenmasse 530.00 kg
Gesamtmasse 575.00 kg
Länge 0.30 m
Durchmesser 4.10 m
Spannweite 29.00 m
Form Box + pan
Hersteller SPXS
Bus-Typ Starlink V2MO
Phasenstatus In Orbit
Besitzer/Staat SPXS/US

Most Searched